Location: Newark
(44.3681°N, 100.3364°W)
Time: 03:28:19
(UTC+00:00)

Vanguard 1 - Pass Details

Date: 25 February 2020
Orbit: 649 x 3833 km, 34.2° (Epoch: 04 April)

Event Time Altitude Azimuth Distance (km) Brightness Sun altitude
Rises 15:50:30 0° 254° (WSW) 7,963 14.4 22.3°
Reaches altitude 10° 15:56:16 10° 251° (WSW) 6,824 14.1 23.1°
Maximum altitude 16:17:02 59° 180° (S) 3,118 13.4 25.8°
Drops below altitude 10° 16:29:22 10° 105° (ESE) 4,286 14.4 27.3°
Sets 16:32:05 0° 101° (ESE) 4,951 14.4 27.6°
